Location: Kuppenheim
(48.8299°N, 8.2568°E)
Time: 07:19:40
(UTC+00:00)

N. Korean satellite - Pass Details

Date: 03 December 2022
Orbit: 407 x 442 km, 97.3° (Epoch: 04 February)

Event Time Altitude Azimuth Distance (km) Brightness Sun altitude
Rises 16:14:42 0° 183° (S) 2,445 10.6 -6.9°
Maximum altitude 16:20:02 40° 262° (W) 698 8.1 -7.7°
Drops below altitude 10° 16:23:20 10° 333° (NNW) 1,629 9.3 -8.2°
Sets 16:25:30 0° 341° (NNW) 2,517 10.1 -8.5°
